Regional Weather Roundup
Issued by NWS Cleveland, OH

Home | Current Version | Previous Version | Graphics & Text | Print | Product List | Glossary On
Versions: 1 2 3 4 5 6 7 8 9 10 11 12 13 14 15 16 17 18 19 20 21 22 23 24 25 26 27 28 29 30 31 32 33 34 35 36 37 38 39 40 41 42 43 44 45 46 47 48 49 50
000
ASUS41 KCLE 230400
RWRCLE
OHIO REGIONAL WEATHER ROUNDUP
NATIONAL WEATHER SERVICE WILMINGTON, OH
1200 AM EDT SAT SEP 23 2017

NOTE: "FAIR" INDICATES FEW OR NO CLOUDS BELOW 12,000 FEET WITH NO
SIGNIFICANT WEATHER AND/OR OBSTRUCTIONS TO VISIBILITY.

OHZ001>008-015>018-024>027-034-035-043-044-230500-
   NORTHWEST OHIO

CITY           SKY/WX    TMP DP  RH WIND       PRES   REMARKS
DEFIANCE       FAIR      71  65  81 E3        30.08S
FINDLAY        FAIR      71  61  70 SE6       30.08S
TOLEDO EXPRESS FAIR      68  67  96 CALM      30.08S
TOLEDO EXEC    FAIR      69  65  86 E5        30.09S
LIMA           FAIR      67  64  90 E5        30.09S
$$

OHZ009>014-019>023-028>033-038-089-230500-
   NORTHEAST OHIO

CITY           SKY/WX    TMP DP  RH WIND       PRES   REMARKS
CLE-HOPKINS    FAIR      68  61  78 CALM      30.11S
CLE-LAKEFRONT  FAIR      74  57  55 CALM      30.09R
CUY CO. ARPT   NOT AVBL
LORAIN-ELYRIA  FAIR      62  56  80 CALM      30.11R
ASHTABULA      FAIR      58  58 100 CALM      30.12S
AKRON-CANTON   MOCLDY    70  57  63 E5        30.11S
WOOSTER        NOT AVBL
MANSFIELD      FAIR      69  65  86 S3        30.12S
YOUNGSTOWN     FAIR      61  60  97 CALM      30.11S
$$

OHZ042-051>053-060>062-070>072-077>081-230500-
  SOUTHWEST OHIO

CITY           SKY/WX    TMP DP  RH WIND       PRES   REMARKS
CINC-COVINGTON FAIR      70  68  93 CALM      30.07S
CINC-LUNKEN    FAIR      68  67  96 CALM      30.07S
HAMILTON       FAIR      67  67 100 CALM      30.07S
DAYTON         NOT AVBL
WRIGHT-PAT AFB NOT AVBL
DAYTON GENERAL FAIR      75  63  66 CALM      30.07S
WILMINGTON     FAIR      67  66  97 CALM      30.09S
$$

OHZ036-037-039>041-045>050-054>059-063>069-073>076-082>088-230500-
  CENTRAL AND SOUTHEAST OHIO

CITY           SKY/WX    TMP DP  RH WIND       PRES   REMARKS
COLUMBUS       MOCLDY    72  66  81 CALM      30.08R
OSU AIRPORT    FAIR      70  66  87 CALM      30.08S
BOLTON FIELD   NOT AVBL
RICKENBACK AFB NOT AVBL
NEWARK         FAIR      65  64  97 CALM      30.09R
MARION         FAIR      67  60  78 CALM      30.10S
LANCASTER      FAIR      63  62  97 CALM      30.09S FOG
ZANESVILLE     FAIR      68  64  87 CALM      30.09S
NEW PHILLY     FAIR      62  59  90 CALM      30.11R
$$




USA.gov is the U.S. government's official web portal to all federal, state and local government web resources and services.